Погода Карасу

Погода Карасу : погода сейчас, прогноз погоды и архив. Всё, что Вы хотите узнать о погоде Карасу!

Поиск расширенной информации на нашем сайте:

Другие новости

Новости СМИ2

Главная страница сайта

Новости сайта

03.07.2017

Напоминаем, что на нашем специализированном сайте Метеоцентр.Азия вы можете получить высокодетализированные автоматические прогнозы погоды по пунктам России, СНГ и мира в авиационном формате (включающие направление и скорость ветра, видимость, явления погоды, количество и форму облачности, нижнюю и верхнюю границу облачности).


Погода Карасу - сегодня

Время (UTC), дата Ветер
(°,м/с) 
Видим.   Явления Облачность Т
(°С)
Тd
(°С)
f(%) Тe
(°С)
Pmin
(гПа)
dP
(гПа)
Po
(мм)
O2
(г/м3)
Тmin Tmax R s Состояние
почвы
09 16.06.18 270 (З) 20000 м    3/3 600 м 
[Cu med, cong]
+25.6 +11.5 41 +31  1006.7  -1.4  685  250           
12 16.06.18 140 (ЮВ) 20000 м    1/1 600 м кучево-дожд. 
[Cb calv]
+26.1 +10.4 37 +30  1005.9  -0.7  684  250           
15 16.06.18 тихо ()   20000 м    1/1 600 м 
[Sc diur, vesp]
+20.8 +15.4 71 +33  1007  -0.3  684  253    +27.3       
18 16.06.18 160 (Ю) н/о    ясно 
+16.2 +12.8 80 +24  1008.2  -0.5  684  257    +27.3       
21 16.06.18 140 (ЮВ) н/о    ясно 
+14.2 +11.2 82 +20  1007.3  -1.5  683  259           
00 17.06.18 230 (ЮЗ) 1-1  20000 м    ясно 
+13.8 +10.2 79 +18  1006.2  -1.2  682  259           
03 17.06.18 090 (В) 20000 м    ясно 
+21.9 +12.6 56 +29  1003.3  682  252           
06 17.06.18 340 (С) 20000 м    3/3 600 м 
[Cu med, cong]
+25.7 +13.2 46 +34  1001.4  -0.6  681  248  +13.4         
09 17.06.18 тихо ()   20000 м    3/3 600 м 
[Cu med, cong]
+29 +11.3 33 +34  1000.1  -0.3  681  246           
12 17.06.18 270 (З) 20000 м    3/3 600 м 
[Cu med, cong]
+29.1 +10.3 31 +33  1000  681  246           
15 17.06.18 тихо ()   20000 м    4/3 600 м кучево-дожд., верхняя 
[Cb calv|Ci fib]
+22.2 +15 64 +34  1002.3  0.2  681  251    +29.6       
18 17.06.18 180 (Ю) н/о    ясно 
+19.2 +12.8 66 +27  1004.7  1.1  682  254    +29.6       
21 17.06.18 070 (В) н/о    ясно 
+17.7 +11.7 68 +25  1004.9  -0.2  682  256           
00 18.06.18 090 (В) 1-3  20000 м    3/3 600 м кучево-дожд. 
[Cb calv]
+16 +11 72 +22  1005.2  -0.6  682  257           
03 18.06.18 070 (В) 20000 м    3/3 600 м 
[Sc]
+24.1 +14.5 55 +32  1002.4  0.3  750  275           
06 18.06.18 340 (С) 20000 м    3/3 600 м 
[Cu med, cong]
+28.3 +12.2 37 +35  1000  -1  681  246  +15.5         
09 18.06.18 020 (С) 20000 м    3/3 600 м 
[Cu hum]
+30.9 +13 34 +39  998.9  -0.3  681  244           
12 18.06.18 180 (Ю) 20000 м    5/5 600 м кучево-дожд. 
[Cb calv]
+30.9 +13 34 +39  998.9  681  244           
15 18.06.18 160 (Ю) 6-7  20000 м    8/3 600 м кучево-дожд., верхняя 
[Cb calv|Ci fib]
+25.3 +8.6 35 +27  1001.7  0.8  681  250    +32.1       
18 18.06.18 100 (В) 2-2  н/о    н/о 
+19.5 +10.5 56 +25    1.4  681  254           
21 18.06.18 160 (Ю) н/о    3/3 600 м верхняя 
[Sc|Ci fib]
+20.8 +9.7 49 +23  1003.1  -0.5  681  253           
00 19.06.18 180 (Ю) 20000 м    3/3 600 м 
[Sc]
+20.8 +7.4 42 +21  1002.4  -0.8  681  254           
03 19.06.18 270 (З) 20000 м    3/3 600 м кучево-дожд. 
[Cb calv]
+23.5 +14.6 57 +34  1013  1.7  682  250           
06 19.06.18 тихо () -3  20000 м    1/0 верхняя 
[Ci fib]
+30.9 +11.9 31 +37  1010.6  -0.4  682  244  +20.2         
09 19.06.18 180 (Ю) 20000 м    8/8 600 м кучево-дожд. 
[Cb calv]
+31.7 +10.9 28 +36  999.1  -0.9  681  244           
Время (UTC), дата Ветер
(°,м/с) 
Видим.   Явления Облачность Т
(°С)
Тd
(°С)
f(%) Тe
(°С)
Pmin
(гПа)
dP
(гПа)
Po
(мм)
O2
(г/м3)
Тmin Tmax R s Состояние
почвы

Для получения пояснительной информации подведите курсор к названию столбца.

ПОГОДА Карасу - архив

Всё, что Вы хотите узнать о погоде Карасу - удобно и подробно!

Выберите нужную дату (начиная с 1 января 2015* года) и нажмите кнопку "Найти".
Будут отображены архивные сводки погоды по пункту Карасу, начиная с указанной даты.


Отображать данные в формате CSV (для использования в таблицах Excel)


Внимание! Наш архив погоды предназначен исключительно для личного некоммерческого использования в познавательных целях. Если Вам необходимы официальные справки о состоянии погоды (для производственных, юридических, коммерческих и т.п. целей), обращайтесь в органы Росгидромета.

*Примечание: данная дата относится к архиву по метеостанциям СССР (Россия, СНГ, Балтия).
Архив по метеостанциям Зарубежной Европы и Азии (кроме Китая) хранится 10 дней, по другим регионам земного шара (Китай, Африка, Америка, Австралия, Океания) - 1 день.

Карасу - район местоположения метеостанции


Название, широта, долгота, высота метеостанции:
Карасу 40.7°ш. 72.9°д. 865 м над ур. моря [Кыргызстан]

Дополнительная информация

В oтличие oт бoльшинства пoгoдных сайтoв мы публикуем пoдрoбную метеoинфoрмацию в детальнoм прoфессиoнальнoм фoрмате.

Характеристики температуры и влажнoсти вoздуха измеряются на высoте 2 м в тени вдали oт зданий и деревьев.
Скoрoсть ветра измеряется на высoте 10 м (на урoвне рoста челoвека скoрoсть ветра ниже в 1.5-2 раза). Если метеoстанция нахoдится в гoрoде или в лесу, тo скoрoсть ветра занижена на 2-4 м/с пo сравнению с oткрытым местoм. Скoрoсть ветра над акватoриями крупных рек и oзёр, а также на вершинах хoлмoв на 2-5 м/с выше, чем в oбычных услoвиях.
Атмoсфернoе давление в разных тoчках местнoсти мoжет значительнo oтличаться oт давления на метеoстанции, в зависимoсти oт услoвий рельефа (при пoдъёме на 10 м давление пoнижается примернo на 1 мм рт.ст.).